Wind_Speed
8 7 7 8 11 12 12 12 11 9 9 10 10 9 9 9 8 6 5 4 5 6 6 6 7 8 9 11 11 11 11 12 12 13 13 13 13 14 15 17 17 18 18 18
8 8 9 10 11 11 11 11 10 9 10 10 10 9 9 10 8 7 6 5 5 5 5 5 6 8 9 10 11 11 11 11 11 12 12 12 13 13 15 16 16 17 17 18
8 8 9 10 10 10 10 10 9 9 10 10 9 8 7 7 6 7 6 6 5 6 6 6 7 8 9 9 10 10 10 11 11 11 12 12 13 13 14 15 15 16 17 18
7 7 8 9 9 8 8 8 9 7 9 10 9 7 6 5 5 6 6 5 5 6 6 7 7 8 9 9 10 10 10 11 11 12 12 12 13 13 13 14 14 15 16 17
6 6 7 7 7 7 7 7 8 8 8 8 7 6 5 6 6 7 7 7 7 7 7 8 8 9 10 10 11 11 12 12 12 12 12 13 13 13 14 14 14 15 16 16
5 6 6 6 6 6 6 6 7 7 6 6 6 6 7 6 7 7 7 8 8 8 8 9 10 11 11 12 12 13 13 13 13 13 13 13 13 14 14 14 14 15 15 16
6 5 5 5 5 5 6 6 6 6 5 5 5 6 7 7 7 8 8 8 9 9 10 10 11 11 12 12 13 14 14 14 14 14 14 14 14 14 14 15 15 15 16 17
8 5 5 5 5 5 6 6 6 7 7 6 5 5 6 7 8 8 9 9 9 9 10 10 11 12 12 12 13 14 14 15 15 14 15 15 15 15 15 16 16 16 16 17
7 6 5 6 6 5 6 6 6 7 5 5 3 4 5 7 8 9 9 9 9 9 10 10 11 12 11 12 13 14 15 15 15 15 15 16 16 16 16 16 16 17 17 18
10 9 7 7 7 6 6 6 6 7 7 7 5 5 5 6 7 8 8 8 9 9 9 10 11 11 11 12 13 14 14 15 15 16 16 16 17 17 17 17 18 18 18 19
11 10 9 10 9 9 8 8 9 9 9 9 7 6 6 6 7 8 8 8 9 9 9 10 11 11 11 12 13 14 15 15 16 16 16 17 17 18 18 18 19 19 19 19
11 12 12 12 11 12 11 11 10 9 9 10 10 7 6 7 7 7 8 8 8 8 9 10 10 11 11 12 13 14 15 16 16 17 17 17 18 18 19 19 20 20 20 21
13 14 13 12 12 12 11 10 10 9 10 10 10 8 7 7 7 7 7 8 8 8 9 9 10 11 12 13 14 15 15 16 16 17 18 18 19 19 20 20 21 22 22 23
14 14 13 12 13 12 12 11 11 11 11 10 10 9 8 7 7 6 7 8 8 8 9 10 10 11 12 13 14 15 16 16 17 17 18 19 19 20 21 22 22 23 23 24
16 15 14 14 14 14 13 12 12 13 12 11 10 8 7 6 6 7 7 7 7 8 9 10 11 11 12 13 14 15 16 16 17 18 19 19 20 21 22 22 23 24 24 25
17 16 16 15 16 16 15 13 14 14 13 11 10 9 7 7 8 8 8 7 8 8 9 10 10 11 12 13 14 15 16 16 17 18 19 20 20 21 22 23 24 25 25 26
19 17 16 16 16 16 15 15 15 14 13 12 11 10 9 9 9 9 9 8 8 8 8 9 10 11 12 13 14 15 16 17 17 18 19 20 21 22 23 24 25 26 26 27
19 19 18 17 18 19 15 15 15 15 14 13 11 10 9 9 10 9 9 9 8 8 9 10 11 12 13 14 14 16 16 17 18 19 19 20 21 23 24 25 26 27 27 28
18 18 18 18 19 18 16 16 16 16 15 13 12 11 10 9 9 9 9 9 9 10 10 11 11 12 13 14 15 16 17 18 18 19 20 21 22 23 25 26 27 27 28 29
18 18 19 19 19 18 16 17 17 18 16 13 12 12 11 10 10 10 10 10 10 11 12 12 13 13 14 15 16 17 17 18 19 20 21 22 23 24 25 26 27 28 29 29
20 19 19 18 19 18 16 17 18 19 17 16 14 13 12 12 11 11 11 11 11 12 13 13 14 14 15 16 16 17 18 19 20 21 22 23 23 25 26 27 28 29 29 30
20 19 20 19 19 19 19 18 18 17 17 16 15 14 14 13 13 12 12 12 13 13 14 15 15 16 16 17 17 18 19 20 21 22 23 24 25 25 26 27 28 29 30 30
20 19 19 19 19 18 19 18 17 18 18 17 16 15 15 15 15 15 15 14 15 15 15 16 17 18 18 19 19 20 20 21 22 23 24 24 25 26 27 28 28 30 31 31
22 22 21 19 18 18 18 19 18 17 17 17 14 14 14 15 16 17 17 16 16 16 17 17 18 19 19 20 20 21 21 22 23 24 25 26 26 27 28 28 29 30 31 31
23 21 20 20 19 18 17 17 16 16 16 16 14 13 14 15 15 16 16 17 17 17 18 18 19 20 20 20 21 22 23 24 24 25 26 27 27 28 29 29 30 30 30 31
23 22 22 21 19 18 17 17 15 16 16 16 15 15 15 16 16 17 18 18 18 18 19 20 21 21 21 22 23 24 25 25 26 26 27 28 28 29 29 30 30 31 31 32
Wind_Direction
298 305 320 325 328 330 331 326 323 325 336 345 345 338 343 346 342 336 322 327 338 341 336 334 333 330 324 319 313 314 313 311 303 301 298 296 293 290 288 287 286 282 278 275
290 308 320 322 324 325 322 317 319 325 341 347 352 349 350 348 344 337 343 5 1 1 4 0 350 341 334 327 321 318 319 318 314 310 305 301 298 293 289 288 286 283 280 278
293 310 320 317 318 319 321 321 322 328 336 341 342 345 347 354 351 353 356 357 7 6 17 14 3 354 345 337 332 332 331 329 327 322 313 308 305 302 298 294 290 287 284 281
296 309 312 311 320 318 320 327 331 336 336 342 350 352 346 358 13 25 24 19 24 18 23 14 8 2 354 352 350 348 346 342 337 332 326 321 317 312 307 303 298 295 291 288
292 294 298 308 325 326 323 329 332 334 333 343 358 9 21 27 34 43 41 36 39 39 31 19 11 6 4 3 1 357 354 348 342 337 331 326 322 318 314 309 305 300 295 291
283 287 288 301 308 309 317 323 324 327 328 351 17 30 35 32 34 38 40 35 35 34 25 16 13 10 9 6 2 357 353 347 342 339 336 333 329 324 319 315 311 308 303 298
267 281 284 294 293 288 296 303 313 320 327 338 9 24 29 30 30 32 32 32 28 26 21 15 12 9 7 3 357 354 351 347 344 341 339 337 334 331 327 322 318 315 310 304
259 273 281 290 289 282 293 295 313 317 315 324 344 5 25 29 29 27 24 29 27 23 18 13 10 9 5 0 355 352 350 349 347 345 343 342 339 336 331 327 324 321 316 310
256 258 266 280 287 285 289 291 305 310 310 309 325 14 19 22 20 19 17 22 22 19 16 12 10 9 4 358 355 354 352 351 349 347 345 344 342 339 335 332 329 325 321 317
259 266 264 270 275 273 278 274 280 299 294 300 312 343 350 359 11 12 13 19 17 14 14 12 10 7 4 1 358 356 354 352 349 348 347 346 344 341 339 336 333 330 326 322
260 267 259 260 267 273 278 279 275 282 279 284 288 316 329 344 354 359 2 6 8 11 11 9 6 5 3 2 359 357 355 353 352 351 349 347 346 344 342 339 337 334 331 327
261 268 263 261 264 266 272 272 271 271 272 276 283 303 314 329 339 348 353 358 2 6 6 3 1 1 0 360 359 358 356 354 353 352 351 350 349 347 345 342 340 338 335 331
256 262 261 258 258 257 262 267 267 267 269 271 282 299 309 322 330 338 347 353 356 359 360 357 356 356 356 356 356 356 355 353 352 351 351 350 350 349 347 345 343 341 338 335
250 255 258 259 259 255 257 264 265 268 267 271 278 290 302 313 326 329 339 347 348 350 351 350 350 350 350 350 351 351 351 351 350 350 350 350 350 350 348 347 345 342 340 338
251 256 255 257 254 251 256 258 258 264 271 274 277 282 300 311 318 319 327 336 336 339 339 339 341 342 343 344 346 347 347 348 348 348 348 348 348 348 347 346 344 342 341 339
249 255 253 253 249 248 251 255 257 261 265 273 280 289 307 307 307 311 317 322 325 326 327 328 330 332 335 338 341 343 344 344 345 346 346 346 345 345 344 344 342 342 341 340
246 251 252 248 248 247 244 248 253 255 259 272 281 292 302 300 301 305 308 310 312 313 314 317 320 324 328 332 335 338 340 340 342 342 343 343 343 342 342 342 341 340 339 338
246 249 250 247 243 244 242 244 248 253 260 270 282 290 295 299 297 298 299 301 302 304 306 310 313 318 323 327 330 333 335 336 337 338 339 340 341 341 341 340 340 339 338 337
247 247 249 248 243 242 237 241 246 252 258 265 277 288 291 293 294 295 296 296 296 297 300 303 307 312 316 320 325 328 330 331 332 333 335 336 337 337 337 338 338 338 337 336
247 247 248 246 242 241 239 242 247 250 257 264 274 282 285 286 288 289 290 292 291 291 294 297 302 306 311 315 319 322 325 327 328 328 330 332 333 334 335 335 336 337 337 337
245 249 249 248 244 245 243 244 245 247 257 264 271 276 277 282 286 284 285 286 287 289 292 295 299 303 307 311 314 316 319 321 323 324 326 328 329 330 332 333 334 336 337 336
249 248 246 247 247 248 247 245 247 254 259 265 267 271 274 281 285 283 283 283 285 289 292 294 297 300 304 306 310 313 315 318 321 323 324 325 326 327 329 330 332 333 335 334
251 252 253 250 253 254 250 250 253 259 261 267 269 269 273 278 280 279 280 284 286 289 291 293 295 297 300 302 306 309 312 315 317 319 321 323 324 325 327 327 329 331 333 334
252 255 256 260 261 263 260 255 258 257 257 261 265 268 276 277 275 273 277 280 283 287 289 291 293 295 298 301 304 307 309 311 313 316 318 320 321 322 324 326 327 329 331 333
255 260 263 267 266 270 269 262 259 258 261 261 265 274 279 278 278 277 279 281 282 285 287 289 291 294 297 299 302 305 307 309 312 314 316 318 318 319 321 323 325 327 328 330
259 264 268 270 270 269 269 266 264 266 266 265 270 273 277 278 280 279 279 279 280 282 285 287 289 292 295 297 300 303 306 307 309 311 313 315 317 318 319 320 322 324 325 327
Height
5892 5892 5889 5887 5886 5884 5882 5881 5880 5878 5876 5874 5872 5870 5869 5867 5866 5864 5864 5864 5864 5863 5862 5862 5861 5860 5859 5858 5856 5854 5853 5852 5851 5849 5848 5847 5846 5845 5843 5842 5841 5840 5839 5838
5890 5889 5887 5885 5884 5882 5881 5880 5879 5877 5875 5873 5872 5870 5869 5867 5865 5864 5863 5862 5862 5862 5861 5861 5860 5858 5857 5856 5854 5852 5851 5849 5848 5846 5845 5844 5842 5841 5840 5838 5836 5835 5834 5833
5887 5887 5885 5884 5882 5881 5879 5878 5877 5875 5874 5872 5871 5871 5869 5868 5866 5864 5862 5862 5861 5861 5860 5860 5859 5857 5856 5854 5852 5850 5849 5847 5845 5843 5842 5841 5839 5837 5835 5834 5832 5831 5829 5828
5884 5884 5883 5882 5880 5879 5878 5877 5876 5874 5873 5871 5871 5869 5868 5867 5865 5864 5863 5862 5861 5860 5859 5859 5858 5857 5855 5853 5850 5849 5847 5845 5843 5841 5839 5837 5835 5833 5832 5830 5828 5826 5825 5823
5882 5882 5881 5880 5879 5878 5877 5876 5875 5873 5872 5871 5869 5869 5868 5866 5865 5864 5863 5862 5861 5859 5859 5858 5857 5855 5853 5851 5849 5847 5845 5842 5841 5838 5836 5834 5832 5830 5828 5826 5824 5822 5820 5818
5880 5880 5879 5878 5878 5877 5876 5875 5874 5873 5872 5871 5869 5869 5868 5867 5865 5864 5863 5862 5861 5859 5858 5856 5855 5853 5851 5849 5847 5845 5843 5840 5838 5836 5834 5831 5829 5827 5824 5822 5820 5818 5816 5814
5878 5878 5877 5876 5876 5875 5874 5874 5873 5872 5871 5870 5869 5868 5868 5866 5865 5863 5862 5861 5859 5858 5857 5855 5854 5852 5850 5848 5846 5843 5841 5839 5836 5833 5831 5828 5826 5823 5821 5818 5816 5813 5811 5809
5875 5876 5875 5874 5874 5873 5872 5872 5872 5871 5869 5868 5868 5867 5867 5865 5863 5862 5860 5859 5858 5857 5856 5854 5852 5850 5848 5846 5844 5842 5839 5836 5834 5831 5828 5825 5823 5820 5817 5814 5812 5809 5807 5804
5872 5872 5872 5872 5872 5871 5871 5870 5870 5869 5867 5867 5866 5866 5865 5863 5862 5861 5859 5858 5857 5856 5855 5853 5851 5849 5848 5845 5843 5840 5837 5835 5832 5829 5826 5823 5820 5817 5814 5811 5808 5805 5803 5800
5868 5869 5869 5869 5869 5869 5869 5868 5868 5867 5866 5865 5865 5864 5863 5862 5861 5860 5859 5857 5856 5855 5853 5852 5850 5849 5847 5844 5842 5839 5836 5833 5830 5827 5823 5820 5817 5814 5811 5807 5804 5801 5798 5795
5864 5865 5866 5866 5866 5866 5866 5866 5865 5865 5864 5863 5862 5864 5862 5860 5859 5858 5857 5856 5854 5853 5852 5850 5849 5847 5845 5843 5840 5837 5834 5831 5828 5825 5821 5818 5814 5811 5807 5804 5801 5797 5794 5791
5860 5861 5862 5863 5864 5863 5863 5863 5862 5862 5861 5860 5860 5863 5859 5859 5857 5856 5855 5854 5852 5851 5850 5848 5847 5846 5844 5841 5839 5836 5832 5829 5826 5823 5819 5816 5812 5808 5805 5801 5797 5794 5790 5787
5857 5858 5858 5859 5861 5861 5860 5859 5859 5859 5858 5858 5858 5860 5857 5856 5855 5854 5853 5852 5851 5849 5848 5847 5846 5844 5842 5839 5837 5834 5831 5827 5824 5821 5817 5813 5809 5806 5802 5798 5794 5790 5786 5782
5853 5854 5855 5856 5856 5856 5856 5856 5856 5855 5855 5855 5855 5855 5855 5854 5853 5852 5851 5850 5849 5848 5846 5845 5844 5842 5840 5837 5835 5832 5829 5826 5822 5819 5815 5811 5807 5803 5799 5795 5791 5787 5782 5778
5849 5849 5850 5851 5851 5852 5852 5852 5852 5852 5852 5852 5852 5852 5852 5851 5850 5849 5849 5848 5847 5845 5844 5843 5841 5840 5838 5835 5832 5830 5827 5823 5820 5816 5813 5809 5805 5801 5797 5792 5788 5784 5779 5774
5844 5845 5846 5847 5847 5848 5849 5849 5848 5848 5848 5848 5848 5848 5848 5848 5847 5847 5846 5845 5844 5843 5842 5841 5839 5837 5835 5833 5830 5827 5824 5821 5817 5814 5810 5806 5802 5798 5794 5790 5785 5780 5776 5771
5840 5840 5841 5842 5842 5843 5844 5845 5844 5844 5844 5844 5844 5845 5845 5844 5844 5843 5843 5842 5841 5841 5840 5838 5837 5835 5833 5830 5828 5825 5822 5818 5815 5811 5808 5804 5800 5795 5791 5786 5782 5777 5772 5767
5834 5835 5836 5837 5838 5838 5842 5840 5840 5840 5840 5841 5841 5841 5841 5841 5840 5840 5839 5839 5838 5837 5837 5835 5834 5832 5829 5827 5825 5822 5819 5815 5812 5808 5805 5801 5797 5792 5788 5783 5778 5773 5768 5763
5829 5830 5830 5831 5832 5833 5836 5836 5835 5836 5836 5837 5837 5838 5837 5837 5836 5836 5835 5835 5834 5834 5833 5832 5830 5828 5826 5824 5821 5818 5815 5812 5809 5805 5802 5798 5793 5789 5784 5779 5774 5769 5764 5758
5823 5824 5826 5826 5827 5828 5832 5832 5831 5833 5833 5834 5834 5834 5833 5833 5833 5833 5831 5831 5831 5830 5829 5828 5826 5824 5822 5820 5817 5815 5812 5809 5805 5802 5798 5794 5789 5785 5780 5775 5770 5765 5760 5754
5818 5819 5820 5821 5822 5824 5826 5827 5828 5829 5830 5829 5830 5830 5829 5829 5830 5829 5828 5827 5826 5825 5824 5823 5821 5820 5818 5816 5813 5811 5808 5805 5801 5797 5794 5790 5785 5780 5776 5771 5766 5760 5755 5749
5813 5814 5815 5816 5818 5821 5821 5822 5823 5824 5824 5825 5825 5825 5825 5825 5824 5824 5823 5823 5822 5821 5820 5818 5817 5815 5813 5811 5808 5806 5803 5800 5796 5793 5789 5785 5780 5776 5771 5766 5761 5755 5750 5745
5808 5809 5809 5811 5814 5815 5816 5817 5818 5818 5819 5820 5820 5820 5820 5820 5819 5819 5818 5818 5817 5816 5815 5813 5812 5810 5808 5806 5803 5801 5798 5795 5791 5787 5783 5779 5775 5770 5766 5761 5756 5750 5745 5739
5802 5803 5804 5805 5807 5809 5810 5811 5812 5812 5813 5814 5815 5815 5815 5814 5814 5813 5813 5812 5812 5811 5809 5808 5806 5805 5803 5800 5798 5795 5792 5789 5786 5782 5778 5774 5769 5765 5760 5755 5750 5745 5739 5734
5796 5797 5798 5799 5801 5802 5803 5805 5806 5807 5807 5808 5809 5809 5809 5809 5808 5807 5807 5806 5806 5805 5804 5802 5801 5799 5797 5795 5792 5789 5786 5783 5779 5776 5772 5768 5763 5759 5754 5749 5744 5739 5734 5728
5790 5792 5793 5793 5795 5796 5798 5798 5800 5800 5801 5802 5803 5803 5803 5803 5803 5802 5801 5800 5799 5798 5797 5796 5794 5792 5790 5788 5786 5783 5780 5776 5773 5769 5765 5761 5757 5753 5748 5743 5738 5733 5728 5722